When you browse on this site, cookies collect data to enhance your experience and personalize the content and advertising you see.
Visit our Privacy Policy to learn more. By continuing to use the site, you agree to this use of cookies and data.
  • Em Portugal
  • Lista de países
  • Para 7 dias
  • Temperatura da água
  • Mapas de satélite
  • Mapa do tempo
  • Widgets de tempo
  • user-avatar
    Iniciar Sessão

    Previsão horária em Minsk

    Hoje, 25 Maio, Sábado

    Tempo Temperatura Precipitação Vento Pressão Humidade
    00:00 +15°C° 0 mm 2 m/s 737 mmHg 92%
    01:00 +14°C° 0 mm 3 m/s 737 mmHg 93%
    02:00 +14°C° 0 mm 2 m/s 736 mmHg 94%
    03:00 +14°C° 0 mm 2 m/s 736 mmHg 95%
    04:00 +14°C° 0 mm 2 m/s 736 mmHg 95%
    05:00 +14°C° 0 mm 2 m/s 736 mmHg 95%
    06:00 +14°C° 0 mm 3 m/s 736 mmHg 91%
    07:00 +16°C° 0 mm 3 m/s 736 mmHg 87%
    08:00 +17°C° 0 mm 3 m/s 736 mmHg 83%
    09:00 +19°C° 0 mm 3 m/s 736 mmHg 78%
    10:00 +20°C° 0 mm 4 m/s 736 mmHg 72%
    11:00 +21°C° 0 mm 4 m/s 736 mmHg 67%
    12:00 +21°C° 0.1 mm 4 m/s 736 mmHg 64%
    13:00 +21°C° 0.1 mm 5 m/s 736 mmHg 61%
    14:00 +22°C° 0.1 mm 5 m/s 736 mmHg 59%
    15:00 +22°C° 0 mm 5 m/s 736 mmHg 58%
    16:00 +21°C° 0 mm 4 m/s 736 mmHg 58%
    17:00 +21°C° 0 mm 4 m/s 736 mmHg 57%
    18:00 +20°C° 0 mm 4 m/s 736 mmHg 64%
    19:00 +18°C° 0 mm 3 m/s 736 mmHg 72%
    20:00 +16°C° 0 mm 3 m/s 736 mmHg 79%
    21:00 +14°C° 0 mm 3 m/s 736 mmHg 82%
    22:00 +13°C° 0 mm 3 m/s 736 mmHg 86%
    23:00 +12°C° 0 mm 3 m/s 736 mmHg 89%

    Amanhã, 26 Maio, Domingo

    Tempo Temperatura Precipitação Vento Pressão Humidade
    00:00 +11°C° 0 mm 3 m/s 737 mmHg 89%
    01:00 +10°C° 0 mm 3 m/s 737 mmHg 89%
    02:00 +10°C° 0 mm 3 m/s 737 mmHg 89%
    03:00 +9°C° 0 mm 3 m/s 737 mmHg 90%
    04:00 +8°C° 0 mm 3 m/s 737 mmHg 91%
    05:00 +8°C° 0 mm 3 m/s 737 mmHg 92%
    06:00 +9°C° 0 mm 3 m/s 738 mmHg 86%
    07:00 +10°C° 0 mm 3 m/s 738 mmHg 81%
    08:00 +12°C° 0 mm 4 m/s 738 mmHg 76%
    09:00 +13°C° 0 mm 4 m/s 738 mmHg 71%
    10:00 +14°C° 0 mm 4 m/s 738 mmHg 67%
    11:00 +15°C° 0 mm 5 m/s 737 mmHg 62%
    12:00 +16°C° 0 mm 5 m/s 737 mmHg 62%
    13:00 +17°C° 0 mm 6 m/s 737 mmHg 61%
    14:00 +17°C° 0 mm 6 m/s 737 mmHg 61%
    15:00 +17°C° 0 mm 6 m/s 737 mmHg 62%
    16:00 +17°C° 0 mm 6 m/s 737 mmHg 63%
    17:00 +17°C° 0 mm 5 m/s 737 mmHg 64%
    18:00 +16°C° 0 mm 5 m/s 737 mmHg 69%
    19:00 +15°C° 0 mm 4 m/s 737 mmHg 73%
    20:00 +14°C° 0 mm 4 m/s 737 mmHg 77%
    21:00 +13°C° 0 mm 4 m/s 737 mmHg 81%
    22:00 +12°C° 0 mm 3 m/s 737 mmHg 84%
    23:00 +11°C° 0 mm 3 m/s 737 mmHg 87%

    Depois de amanhã, 27 Maio, Segunda-feira

    Tempo Temperatura Precipitação Vento Pressão Humidade
    00:00 +10°C° 0 mm 3 m/s 737 mmHg 89%
    01:00 +10°C° 0 mm 3 m/s 737 mmHg 91%
    02:00 +9°C° 0 mm 3 m/s 737 mmHg 92%
    03:00 +10°C° 0 mm 3 m/s 738 mmHg 90%
    04:00 +10°C° 0 mm 4 m/s 738 mmHg 87%
    05:00 +10°C° 0 mm 5 m/s 738 mmHg 85%
    06:00 +12°C° 0.1 mm 5 m/s 738 mmHg 83%
    07:00 +13°C° 0.1 mm 5 m/s 738 mmHg 82%
    08:00 +15°C° 0.1 mm 6 m/s 738 mmHg 80%
    09:00 +15°C° 0 mm 5 m/s 738 mmHg 78%
    10:00 +16°C° 0 mm 5 m/s 738 mmHg 76%
    11:00 +17°C° 0 mm 5 m/s 738 mmHg 75%
    12:00 +19°C° 0.1 mm 5 m/s 738 mmHg 73%
    13:00 +20°C° 0.1 mm 5 m/s 738 mmHg 70%
    14:00 +21°C° 0.1 mm 6 m/s 738 mmHg 68%
    15:00 +21°C° 0.3 mm 6 m/s 738 mmHg 70%
    16:00 +21°C° 0.3 mm 6 m/s 738 mmHg 72%
    17:00 +21°C° 0.3 mm 6 m/s 738 mmHg 74%
    18:00 +20°C° 0.2 mm 5 m/s 738 mmHg 78%
    19:00 +19°C° 0.2 mm 5 m/s 738 mmHg 81%
    20:00 +18°C° 0.2 mm 4 m/s 738 mmHg 85%
    21:00 +17°C° 0 mm 4 m/s 738 mmHg 87%
    22:00 +17°C° 0 mm 3 m/s 738 mmHg 89%
    23:00 +16°C° 0 mm 3 m/s 738 mmHg 91%

    28 Maio, Terça-feira

    Tempo Temperatura Precipitação Vento Pressão Humidade
    00:00 +14°C° 0 mm 3 m/s 738 mmHg 92%
    01:00 +14°C° 0 mm 3 m/s 738 mmHg 93%
    02:00 +14°C° 0 mm 3 m/s 738 mmHg 94%
    03:00 +14°C° 0 mm 3 m/s 738 mmHg 94%
    04:00 +14°C° 0 mm 3 m/s 738 mmHg 95%
    05:00 +14°C° 0 mm 3 m/s 738 mmHg 95%
    06:00 +17°C° 0 mm 3 m/s 739 mmHg 91%
    07:00 +18°C° 0 mm 3 m/s 739 mmHg 87%
    08:00 +20°C° 0 mm 3 m/s 739 mmHg 83%
    09:00 +21°C° 0.6 mm 3 m/s 739 mmHg 78%
    10:00 +22°C° 0.6 mm 4 m/s 739 mmHg 73%
    11:00 +23°C° 0.6 mm 4 m/s 739 mmHg 68%
    12:00 +25°C° 0.6 mm 4 m/s 738 mmHg 68%
    13:00 +25°C° 0.6 mm 5 m/s 738 mmHg 69%
    14:00 +25°C° 0.6 mm 5 m/s 738 mmHg 69%
    15:00 +23°C° 0.7 mm 4 m/s 737 mmHg 72%
    16:00 +23°C° 0.7 mm 4 m/s 737 mmHg 76%
    17:00 +24°C° 0.7 mm 3 m/s 737 mmHg 79%
    18:00 +22°C° 0.2 mm 3 m/s 737 mmHg 82%
    19:00 +21°C° 0.2 mm 3 m/s 737 mmHg 85%
    20:00 +20°C° 0.2 mm 3 m/s 737 mmHg 87%
    21:00 +20°C° 0 mm 3 m/s 737 mmHg 89%
    22:00 +19°C° 0 mm 4 m/s 737 mmHg 91%
    23:00 +19°C° 0 mm 4 m/s 737 mmHg 92%

    29 Maio, Quarta-feira

    Tempo Temperatura Precipitação Vento Pressão Humidade
    00:00 +18°C° 0 mm 4 m/s 736 mmHg 93%
    01:00 +18°C° 0 mm 4 m/s 736 mmHg 93%
    02:00 +17°C° 0 mm 4 m/s 736 mmHg 93%
    03:00 +17°C° 0 mm 4 m/s 736 mmHg 93%
    04:00 +17°C° 0 mm 4 m/s 736 mmHg 92%
    05:00 +17°C° 0 mm 4 m/s 736 mmHg 92%
    06:00 +16°C° 0 mm 5 m/s 736 mmHg 88%
    07:00 +17°C° 0 mm 5 m/s 736 mmHg 84%
    08:00 +19°C° 0 mm 6 m/s 736 mmHg 80%
    09:00 +20°C° 0 mm 6 m/s 736 mmHg 77%
    10:00 +21°C° 0 mm 6 m/s 736 mmHg 75%
    11:00 +22°C° 0 mm 6 m/s 736 mmHg 73%
    12:00 +23°C° 0 mm 6 m/s 736 mmHg 71%
    13:00 +24°C° 0 mm 6 m/s 736 mmHg 69%
    14:00 +26°C° 0 mm 7 m/s 736 mmHg 67%
    15:00 +23°C° 2 mm 6 m/s 735 mmHg 73%
    16:00 +22°C° 2 mm 5 m/s 735 mmHg 78%
    17:00 +21°C° 2 mm 5 m/s 735 mmHg 84%
    18:00 +20°C° 0.2 mm 4 m/s 735 mmHg 85%
    19:00 +20°C° 0.2 mm 4 m/s 736 mmHg 87%
    20:00 +19°C° 0.2 mm 4 m/s 736 mmHg 89%
    21:00 +19°C° 0 mm 3 m/s 736 mmHg 91%
    22:00 +18°C° 0 mm 3 m/s 737 mmHg 93%
    23:00 +17°C° 0 mm 3 m/s 737 mmHg 95%

    30 Maio, Quinta-feira

    Tempo Temperatura Precipitação Vento Pressão Humidade
    00:00 +15°C° 0 mm 4 m/s 738 mmHg 93%
    01:00 +14°C° 0 mm 4 m/s 739 mmHg 92%
    02:00 +13°C° 0 mm 4 m/s 739 mmHg 91%
    03:00 +13°C° 0 mm 4 m/s 740 mmHg 90%
    04:00 +12°C° 0 mm 4 m/s 741 mmHg 90%
    05:00 +12°C° 0 mm 4 m/s 741 mmHg 90%
    06:00 +12°C° 0 mm 4 m/s 742 mmHg 87%
    07:00 +11°C° 0 mm 4 m/s 743 mmHg 84%
    08:00 +11°C° 0 mm 4 m/s 743 mmHg 80%
    09:00 +13°C° 0 mm 4 m/s 744 mmHg 71%
    10:00 +15°C° 0 mm 4 m/s 744 mmHg 61%
    11:00 +17°C° 0 mm 4 m/s 745 mmHg 52%
    12:00 +18°C° 0 mm 4 m/s 745 mmHg 51%
    13:00 +18°C° 0 mm 4 m/s 745 mmHg 50%
    14:00 +19°C° 0 mm 4 m/s 745 mmHg 49%
    15:00 +19°C° 0 mm 4 m/s 745 mmHg 50%
    16:00 +19°C° 0 mm 3 m/s 745 mmHg 51%
    17:00 +19°C° 0 mm 3 m/s 746 mmHg 53%
    18:00 +17°C° 0 mm 2 m/s 746 mmHg 58%
    19:00 +16°C° 0 mm 2 m/s 745 mmHg 63%
    20:00 +14°C° 0 mm 2 m/s 745 mmHg 68%
    21:00 +13°C° 0 mm 2 m/s 746 mmHg 69%
    22:00 +13°C° 0 mm 2 m/s 746 mmHg 70%
    23:00 +12°C° 0 mm 2 m/s 746 mmHg 71%
    Mostrar mais